TimeCDT,TemperatureF,Dew PointF,Humidity,Sea Level PressureIn,VisibilityMPH,Wind Direction,Wind SpeedMPH,Gust SpeedMPH,PrecipitationIn,Events,Conditions,WindDirDegrees,DateUTC
12:52 AM,66.0,62.1,87,30.00,7.0,SSE,4.6,-,N/A,,Clear,160,2013-08-20 05:52:00
1:52 AM,64.9,62.1,90,30.01,7.0,SSE,5.8,-,N/A,,Clear,160,2013-08-20 06:52:00
2:52 AM,64.9,61.0,87,30.01,6.0,South,4.6,-,N/A,,Partly Cloudy,170,2013-08-20 07:52:00
3:52 AM,64.9,62.1,90,30.01,6.0,Calm,Calm,-,N/A,,Overcast,0,2013-08-20 08:52:00
4:52 AM,64.0,61.0,90,30.01,6.0,Calm,Calm,-,N/A,,Scattered Clouds,0,2013-08-20 09:52:00
5:52 AM,64.0,62.1,93,30.02,5.0,SSE,4.6,-,N/A,,Overcast,150,2013-08-20 10:52:00
6:52 AM,64.0,62.1,93,30.04,6.0,SSE,4.6,-,N/A,,Haze,150,2013-08-20 11:52:00
7:52 AM,66.9,64.0,90,30.05,6.0,South,3.5,-,N/A,,Haze,170,2013-08-20 12:52:00
8:52 AM,71.1,64.0,78,30.05,6.0,South,5.8,-,N/A,,Haze,180,2013-08-20 13:52:00
9:52 AM,75.0,64.9,71,30.05,8.0,South,10.4,-,N/A,,Scattered Clouds,180,2013-08-20 14:52:00
10:52 AM,79.0,64.9,62,30.05,10.0,South,11.5,-,N/A,,Clear,180,2013-08-20 15:52:00
11:52 AM,82.0,66.0,58,30.04,10.0,South,12.7,18.4,N/A,,Clear,190,2013-08-20 16:52:00
12:52 PM,84.0,66.0,55,30.02,10.0,South,13.8,-,N/A,,Scattered Clouds,180,2013-08-20 17:52:00
1:52 PM,84.9,66.0,53,30.01,10.0,SSW,11.5,20.7,N/A,,Clear,200,2013-08-20 18:52:00
2:52 PM,84.9,66.0,53,29.99,10.0,South,12.7,19.6,N/A,,Partly Cloudy,170,2013-08-20 19:52:00
3:52 PM,86.0,64.9,49,29.98,10.0,South,10.4,-,N/A,,Partly Cloudy,180,2013-08-20 20:52:00
4:52 PM,86.0,66.0,51,29.97,10.0,South,11.5,17.3,N/A,,Partly Cloudy,190,2013-08-20 21:52:00
5:52 PM,84.9,64.9,51,29.97,10.0,South,10.4,-,N/A,,Clear,180,2013-08-20 22:52:00
6:52 PM,82.0,66.9,60,29.97,9.0,South,5.8,-,N/A,,Clear,170,2013-08-20 23:52:00
7:52 PM,79.0,66.0,64,29.97,9.0,SSE,8.1,-,N/A,,Clear,160,2013-08-21 00:52:00
8:52 PM,77.0,66.0,69,29.98,10.0,SSE,6.9,-,N/A,,Clear,160,2013-08-21 01:52:00
9:52 PM,75.9,64.9,69,29.99,10.0,South,6.9,-,N/A,,Mostly Cloudy,170,2013-08-21 02:52:00
10:52 PM,73.9,64.0,71,29.99,10.0,South,8.1,-,N/A,,Scattered Clouds,170,2013-08-21 03:52:00
11:52 PM,73.0,64.0,73,29.99,10.0,South,9.2,-,N/A,,Partly Cloudy,170,2013-08-21 04:52:00